Skip Page Navigation
NASA JPL Caltech
NASA Logo - Jet Propulsion Laboratory + View the NASA Portal
+ Center for Near-Earth Object Studies
JPL Home Earth Solar System Stars & Galaxies Technology
JPL Solar System Dynamics
BODIES ORBITS EPHEMERIDES TOOLS PHYSICAL DATA DISCOVERY FAQ SITE MAP
IMPORTANT: The SSD Announcement email list is now available. Major changes are coming in the near future, including possible hostname and/or URL changes. To be notified of such changes, subscribe to this email list.

Please visit this page for more details.


JPL Small-Body Database Browser
Search: [ help ]  
37097 (2000 UM90)
Classification: Main-belt Asteroid          SPK-ID: 2037097
Ephemeris | Orbit Diagram | Orbital Elements | Mission Design | Physical Parameters | Discovery Circumstances | Close-Approach Data ]

[ show orbit diagram ]
Orbital Elements at Epoch 2459000.5 (2020-May-31.0) TDB
Reference: JPL 21 (heliocentric ecliptic J2000)
 Element Value Uncertainty (1-sigma)   Units 
e .1045983579683022 4.7158e-08  
a 3.083694146153575 1.7216e-08 au
q 2.761144801989445 1.4273e-07 au
i 10.25162753798711 5.4637e-06 deg
node 39.99293715854936 2.0124e-05 deg
peri 15.44574076165848 2.8326e-05 deg
M 225.1783701121406 2.016e-05 deg
tp 2459741.234280287026
(2022-Jun-10.73428029)
0.00011308 TDB
period 1977.9047406943
5.42
1.6563e-05
4.535e-08
d
yr
n .1820107877761746 1.5242e-09 deg/d
Q 3.406243490317704 1.9016e-08 au
  Orbit Determination Parameters
   # obs. used (total)      1250  
   data-arc span      15764 days (43.16 yr)  
   first obs. used      1976-05-02  
   last obs. used      2019-06-30  
   planetary ephem.      DE431  
   SB-pert. ephem.      SB431-N16  
   condition code      0  
   norm. resid. RMS      .49624  
   source      ORB  
   producer      Otto Matic  
   solution date      2020-Feb-23 04:24:54  

Additional Information
 Earth MOID = 1.77372 au 
 Jupiter MOID = 1.98915 au 
 T_jup = 3.194 
[ show covariance matrix ]

Ephemeris | Orbit Diagram | Orbital Elements | Mission Design | Physical Parameters | Discovery Circumstances | Close-Approach Data ]

Physical Parameter Table
Parameter Symbol Value Units Sigma Reference Notes
absolute magnitude H 13.6   n/a MPO436027  
diameter diameter 10.247 km 0.113 urn:nasa:pds:neowise_diameters_albedos::2.0[mainbelt] (http://adsabs.harvard.edu/abs/2011ApJ...741...68M)  
geometric albedo albedo 0.051   0.005 urn:nasa:pds:neowise_diameters_albedos::2.0[mainbelt] (http://adsabs.harvard.edu/abs/2011ApJ...741...68M)  

37097 (2000 UM90)          Discovered 2000-Oct-24 by LINEAR at Socorro
Reference: 20020227/Numbers.arcLast Updated: 2004-04-19

[ show close-approach data ]
Alternate Designations
 2000 UM90 = 1976 JH10 = 1989 VJ6 
Ephemeris | Orbit Diagram | Orbital Elements | Mission Design | Physical Parameters | Discovery Circumstances | Close-Approach Data ]
ABOUT SSD CREDITS/AWARDS PRIVACY/COPYRIGHT GLOSSARY LINKS
FirstGov 2020-Apr-04 06:23 UT
(server date/time)  
NASA Home Page
Site Manager:   Ryan S. Park
Webmaster  Alan B. Chamberlin